contact:dominique.lefevre@mio.osupytheas.fr, maurice.libes@osupytheas.fr, didier.mallarino@osupytheas.fr
Project:EMSO http://www.emso-fr.org/EMSO-France
Depth: 2436.0 m
Title:EMSO Ligure Ouest : Data MII capteur CSTAR
DateTime,Latitude,Longitude,Instrument_Serial,Reference_Counts,Signal_Counts,Corrected_Signal_raw_counts,Calculated_Beam_c_inverse_meters,Internal_thermistor_counts
DateTime,Latitude,Longitude,Instrument_Serial,Reference_Counts,Signal_Counts,Corrected_Signal_raw_counts,Calculated_Beam_c_inverse_meters,Internal_thermistor_counts
2023-01-21T00:02:13,42.805,6.029,CST-1368DR,4410,4923,11863,01.099,551
2023-01-21T00:05:14,42.805,6.029,CST-1368DR,4410,4924,11867,01.098,551
2023-01-21T00:08:16,42.805,6.029,CST-1368DR,4409,4922,11864,01.099,551
2023-01-21T00:11:17,42.805,6.029,CST-1368DR,4410,4922,11862,01.100,551
2023-01-21T00:14:19,42.805,6.029,CST-1368DR,4410,4924,11867,01.098,551
2023-01-21T00:17:20,42.805,6.029,CST-1368DR,4410,4922,11862,01.100,551
2023-01-21T00:20:22,42.805,6.029,CST-1368DR,4410,4924,11867,01.098,551
2023-01-21T00:23:24,42.805,6.029,CST-1368DR,4410,4925,11870,01.097,551
2023-01-21T00:26:25,42.805,6.029,CST-1368DR,4410,4922,11862,01.100,551
2023-01-21T00:29:27,42.805,6.029,CST-1368DR,4410,4921,11860,01.100,551
2023-01-21T00:32:28,42.805,6.029,CST-1368DR,4410,4925,11870,01.097,551
2023-01-21T00:35:30,42.805,6.029,CST-1368DR,4410,4922,11862,01.100,551
2023-01-21T00:38:32,42.805,6.029,CST-1368DR,4410,4921,11859,01.101,551
2023-01-21T00:41:33,42.805,6.029,CST-1368DR,4410,4923,11863,01.099,551
2023-01-21T00:44:35,42.805,6.029,CST-1368DR,4410,4923,11864,01.099,551
2023-01-21T00:47:36,42.805,6.029,CST-1368DR,4410,4922,11862,01.100,551
2023-01-21T00:50:38,42.805,6.029,CST-1368DR,4410,4923,11865,01.099,551
2023-01-21T00:53:40,42.805,6.029,CST-1368DR,4410,4926,11871,01.097,551
2023-01-21T00:56:41,42.805,6.029,CST-1368DR,4410,4922,11862,01.100,551
2023-01-21T00:59:43,42.805,6.029,CST-1368DR,4409,4920,11859,01.101,551
2023-01-21T01:02:44,42.805,6.029,CST-1368DR,4410,4921,11859,01.101,551
2023-01-21T01:05:46,42.805,6.029,CST-1368DR,4410,4924,11867,01.098,551
2023-01-21T01:08:47,42.805,6.029,CST-1368DR,4410,4927,11873,01.096,551
2023-01-21T01:11:49,42.805,6.029,CST-1368DR,4409,4924,11869,01.097,551
2023-01-21T01:14:51,42.805,6.029,CST-1368DR,4410,4924,11866,01.098,551
2023-01-21T01:17:52,42.805,6.029,CST-1368DR,4410,4924,11866,01.098,551
2023-01-21T01:20:54,42.805,6.029,CST-1368DR,4410,4929,11877,01.095,551
2023-01-21T01:23:55,42.805,6.029,CST-1368DR,4409,4921,11861,01.100,551
2023-01-21T01:26:57,42.805,6.029,CST-1368DR,4410,4924,11867,01.098,551
2023-01-21T01:29:59,42.805,6.029,CST-1368DR,4410,4925,11868,01.098,551
2023-01-21T01:33:00,42.805,6.029,CST-1368DR,4410,4926,11870,01.097,551
2023-01-21T01:36:02,42.805,6.029,CST-1368DR,4410,4925,11868,01.098,551
2023-01-21T01:39:03,42.805,6.029,CST-1368DR,4410,4928,11875,01.095,551
2023-01-21T01:42:05,42.805,6.029,CST-1368DR,4410,4925,11868,01.098,551
2023-01-21T01:45:06,42.805,6.029,CST-1368DR,4409,4922,11865,01.099,551
2023-01-21T01:48:08,42.805,6.029,CST-1368DR,4409,4926,11873,01.096,551
2023-01-21T01:51:10,42.805,6.029,CST-1368DR,4409,4926,11873,01.096,551
2023-01-21T01:54:11,42.805,6.029,CST-1368DR,4410,4926,11872,01.096,551
2023-01-21T01:57:13,42.805,6.029,CST-1368DR,4410,4923,11865,01.099,551
2023-01-21T02:00:14,42.805,6.029,CST-1368DR,4410,4926,11871,01.097,551
2023-01-21T02:03:16,42.805,6.029,CST-1368DR,4410,4926,11871,01.097,551
2023-01-21T02:06:18,42.805,6.029,CST-1368DR,4409,4926,11874,01.096,551
2023-01-21T02:09:19,42.805,6.029,CST-1368DR,4410,4924,11866,01.098,551
2023-01-21T02:12:21,42.805,6.029,CST-1368DR,4410,4927,11873,01.096,551
2023-01-21T02:15:22,42.805,6.029,CST-1368DR,4410,4928,11877,01.095,551
2023-01-21T02:18:24,42.805,6.029,CST-1368DR,4410,4929,11877,01.095,551
2023-01-21T02:21:26,42.805,6.029,CST-1368DR,4410,4925,11869,01.097,551
2023-01-21T02:24:27,42.805,6.029,CST-1368DR,4410,4924,11866,01.098,551
2023-01-21T02:27:29,42.805,6.029,CST-1368DR,4409,4927,11876,01.095,551
2023-01-21T02:30:30,42.805,6.029,CST-1368DR,4410,4928,11876,01.095,551
2023-01-21T02:33:32,42.805,6.029,CST-1368DR,4410,4927,11874,01.096,551
2023-01-21T02:36:33,42.805,6.029,CST-1368DR,4409,4927,11875,01.095,551
2023-01-21T02:39:35,42.805,6.029,CST-1368DR,4410,4928,11875,01.095,551
2023-01-21T02:42:37,42.805,6.029,CST-1368DR,4410,4929,11879,01.094,551
2023-01-21T02:45:38,42.805,6.029,CST-1368DR,4409,4926,11874,01.096,551
2023-01-21T02:48:40,42.805,6.029,CST-1368DR,4409,4924,11869,01.097,551
2023-01-21T02:51:41,42.805,6.029,CST-1368DR,4410,4925,11868,01.098,551
2023-01-21T02:54:43,42.805,6.029,CST-1368DR,4410,4925,11869,01.097,551
2023-01-21T02:57:45,42.805,6.029,CST-1368DR,4409,4925,11872,01.096,551
2023-01-21T03:00:46,42.805,6.029,CST-1368DR,4409,4925,11872,01.096,551
2023-01-21T03:03:48,42.805,6.029,CST-1368DR,4409,4926,11875,01.095,551
2023-01-21T03:06:49,42.805,6.029,CST-1368DR,4409,4927,11877,01.095,551
2023-01-21T03:09:51,42.805,6.029,CST-1368DR,4409,4926,11875,01.095,551
2023-01-21T03:12:52,42.805,6.029,CST-1368DR,4409,4924,11869,01.097,551
2023-01-21T03:15:54,42.805,6.029,CST-1368DR,4409,4927,11877,01.095,551
2023-01-21T03:18:56,42.805,6.029,CST-1368DR,4409,4926,11873,01.096,551
2023-01-21T03:21:57,42.805,6.029,CST-1368DR,4409,4926,11874,01.096,551
2023-01-21T03:24:59,42.805,6.029,CST-1368DR,4409,4926,11873,01.096,551
2023-01-21T03:28:00,42.805,6.029,CST-1368DR,4409,4928,11878,01.094,551
2023-01-21T03:31:02,42.805,6.029,CST-1368DR,4409,4926,11875,01.095,551
2023-01-21T03:34:04,42.805,6.029,CST-1368DR,4409,4927,11877,01.095,551
2023-01-21T03:37:05,42.805,6.029,CST-1368DR,4409,4926,11875,01.095,551
2023-01-21T03:40:07,42.805,6.029,CST-1368DR,4409,4928,11879,01.094,551
2023-01-21T03:43:08,42.805,6.029,CST-1368DR,4409,4929,11881,01.093,551
2023-01-21T03:46:10,42.805,6.029,CST-1368DR,4409,4929,11881,01.093,551
2023-01-21T03:49:12,42.805,6.029,CST-1368DR,4409,4928,11879,01.094,551
2023-01-21T03:52:13,42.805,6.029,CST-1368DR,4409,4928,11879,01.094,551
2023-01-21T03:55:15,42.805,6.029,CST-1368DR,4409,4928,11879,01.094,551
2023-01-21T03:58:16,42.805,6.029,CST-1368DR,4409,4929,11881,01.093,551
2023-01-21T04:01:18,42.805,6.029,CST-1368DR,4409,4929,11882,01.093,551
2023-01-21T04:04:19,42.805,6.029,CST-1368DR,4409,4929,11882,01.093,551
2023-01-21T04:07:21,42.805,6.029,CST-1368DR,4409,4929,11881,01.093,551
2023-01-21T04:10:23,42.805,6.029,CST-1368DR,4409,4929,11881,01.093,551
2023-01-21T04:13:24,42.805,6.029,CST-1368DR,4409,4930,11883,01.093,551
2023-01-21T04:16:26,42.805,6.029,CST-1368DR,4409,4929,11882,01.093,551
2023-01-21T04:19:27,42.805,6.029,CST-1368DR,4410,4930,11881,01.093,551
2023-01-21T04:22:29,42.805,6.029,CST-1368DR,4409,4930,11883,01.093,551
2023-01-21T04:25:31,42.805,6.029,CST-1368DR,4409,4929,11881,01.093,551
2023-01-21T04:28:32,42.805,6.029,CST-1368DR,4409,4930,11883,01.093,551
2023-01-21T04:31:34,42.805,6.029,CST-1368DR,4410,4930,11881,01.093,551
2023-01-21T04:34:35,42.805,6.029,CST-1368DR,4409,4931,11885,01.092,551
2023-01-21T04:37:37,42.805,6.029,CST-1368DR,4409,4930,11882,01.093,551
2023-01-21T04:40:38,42.805,6.029,CST-1368DR,4409,4928,11879,01.094,551
2023-01-21T04:43:40,42.805,6.029,CST-1368DR,4409,4929,11882,01.093,551
2023-01-21T04:46:42,42.805,6.029,CST-1368DR,4409,4931,11885,01.092,551
2023-01-21T04:49:43,42.805,6.029,CST-1368DR,4409,4930,11882,01.093,551
2023-01-21T04:52:45,42.805,6.029,CST-1368DR,4409,4929,11882,01.093,551
2023-01-21T04:55:46,42.805,6.029,CST-1368DR,4409,4929,11881,01.093,551
2023-01-21T04:58:48,42.805,6.029,CST-1368DR,4409,4929,11882,01.093,551
2023-01-21T05:01:50,42.805,6.029,CST-1368DR,4409,4929,11881,01.093,551
2023-01-21T05:04:51,42.805,6.029,CST-1368DR,4409,4930,11882,01.093,551
2023-01-21T05:07:53,42.805,6.029,CST-1368DR,4409,4929,11882,01.093,551
2023-01-21T05:10:54,42.805,6.029,CST-1368DR,4409,4929,11882,01.093,551
2023-01-21T05:13:56,42.805,6.029,CST-1368DR,4409,4929,11881,01.093,551
2023-01-21T05:16:58,42.805,6.029,CST-1368DR,4409,4930,11882,01.093,551
2023-01-21T05:19:59,42.805,6.029,CST-1368DR,4409,4929,11881,01.093,551
2023-01-21T05:23:01,42.805,6.029,CST-1368DR,4409,4929,11882,01.093,551
2023-01-21T05:26:02,42.805,6.029,CST-1368DR,4409,4929,11881,01.093,551
2023-01-21T05:29:04,42.805,6.029,CST-1368DR,4409,4929,11881,01.093,551
2023-01-21T05:32:05,42.805,6.029,CST-1368DR,4409,4929,11881,01.093,551
2023-01-21T05:35:07,42.805,6.029,CST-1368DR,4409,4930,11883,01.093,551
2023-01-21T05:38:09,42.805,6.029,CST-1368DR,4409,4929,11882,01.093,551
2023-01-21T05:41:10,42.805,6.029,CST-1368DR,4409,4929,11882,01.093,551
2023-01-21T05:44:12,42.805,6.029,CST-1368DR,4409,4929,11881,01.093,551
2023-01-21T05:47:13,42.805,6.029,CST-1368DR,4409,4928,11878,01.094,551
2023-01-21T05:50:15,42.805,6.029,CST-1368DR,4409,4930,11883,01.093,551
2023-01-21T05:53:17,42.805,6.029,CST-1368DR,4409,4929,11881,01.093,551
2023-01-21T05:56:18,42.805,6.029,CST-1368DR,4409,4928,11878,01.094,551
2023-01-21T05:59:20,42.805,6.029,CST-1368DR,4409,4929,11881,01.093,551
2023-01-21T06:02:21,42.805,6.029,CST-1368DR,4409,4929,11882,01.093,551
2023-01-21T06:05:23,42.805,6.029,CST-1368DR,4409,4930,11884,01.092,551
2023-01-21T06:08:24,42.805,6.029,CST-1368DR,4409,4930,11883,01.093,551
2023-01-21T06:11:26,42.805,6.029,CST-1368DR,4409,4930,11882,01.093,551
2023-01-21T06:14:28,42.805,6.029,CST-1368DR,4409,4930,11882,01.093,551
2023-01-21T06:17:29,42.805,6.029,CST-1368DR,4409,4929,11881,01.093,551
2023-01-21T06:20:31,42.805,6.029,CST-1368DR,4409,4929,11881,01.093,551
2023-01-21T06:23:32,42.805,6.029,CST-1368DR,4409,4929,11881,01.093,551
2023-01-21T06:26:34,42.805,6.029,CST-1368DR,4409,4929,11882,01.093,551
2023-01-21T06:29:36,42.805,6.029,CST-1368DR,4409,4930,11882,01.093,551
2023-01-21T06:32:37,42.805,6.029,CST-1368DR,4409,4928,11878,01.094,551
2023-01-21T06:35:39,42.805,6.029,CST-1368DR,4409,4929,11881,01.093,551
2023-01-21T06:38:40,42.805,6.029,CST-1368DR,4409,4929,11882,01.093,551
2023-01-21T06:41:42,42.805,6.029,CST-1368DR,4409,4930,11883,01.093,551
2023-01-21T06:44:44,42.805,6.029,CST-1368DR,4409,4931,11885,01.092,551
2023-01-21T06:47:45,42.805,6.029,CST-1368DR,4409,4930,11883,01.093,551
2023-01-21T06:50:47,42.805,6.029,CST-1368DR,4409,4929,11881,01.093,551
2023-01-21T06:53:48,42.805,6.029,CST-1368DR,4409,4929,11881,01.093,551
2023-01-21T06:56:50,42.805,6.029,CST-1368DR,4409,4930,11883,01.093,551
2023-01-21T06:59:51,42.805,6.029,CST-1368DR,4409,4930,11884,01.092,551
2023-01-21T07:02:53,42.805,6.029,CST-1368DR,4409,4930,11882,01.093,551
2023-01-21T07:05:55,42.805,6.029,CST-1368DR,4409,4929,11881,01.093,551
2023-01-21T07:08:56,42.805,6.029,CST-1368DR,4409,4929,11880,01.094,551
2023-01-21T07:11:58,42.805,6.029,CST-1368DR,4409,4930,11883,01.093,551
2023-01-21T07:14:59,42.805,6.029,CST-1368DR,4409,4929,11882,01.093,551
2023-01-21T07:18:01,42.805,6.029,CST-1368DR,4409,4930,11884,01.092,551
2023-01-21T07:21:03,42.805,6.029,CST-1368DR,4409,4930,11882,01.093,551
2023-01-21T07:24:04,42.805,6.029,CST-1368DR,4409,4930,11883,01.093,551
2023-01-21T07:27:06,42.805,6.029,CST-1368DR,4409,4929,11881,01.093,551
2023-01-21T07:30:07,42.805,6.029,CST-1368DR,4409,4929,11881,01.093,551
2023-01-21T07:33:09,42.805,6.029,CST-1368DR,4409,4930,11883,01.093,551
2023-01-21T07:36:10,42.805,6.029,CST-1368DR,4409,4930,11882,01.093,551
2023-01-21T07:39:12,42.805,6.029,CST-1368DR,4409,4929,11882,01.093,551
2023-01-21T07:42:14,42.805,6.029,CST-1368DR,4409,4929,11882,01.093,551
2023-01-21T07:45:15,42.805,6.029,CST-1368DR,4409,4930,11884,01.092,551
2023-01-21T07:48:17,42.805,6.029,CST-1368DR,4409,4930,11883,01.093,551
2023-01-21T07:51:18,42.805,6.029,CST-1368DR,4409,4929,11882,01.093,551
2023-01-21T07:54:20,42.805,6.029,CST-1368DR,4409,4930,11884,01.092,551
2023-01-21T07:57:22,42.805,6.029,CST-1368DR,4409,4930,11883,01.093,551
2023-01-21T08:00:23,42.805,6.029,CST-1368DR,4409,4930,11882,01.093,551
2023-01-21T08:03:25,42.805,6.029,CST-1368DR,4409,4930,11884,01.092,551
2023-01-21T08:06:26,42.805,6.029,CST-1368DR,4409,4930,11883,01.093,551
2023-01-21T08:09:28,42.805,6.029,CST-1368DR,4409,4930,11882,01.093,551
2023-01-21T08:12:29,42.805,6.029,CST-1368DR,4409,4930,11884,01.092,551
2023-01-21T08:15:31,42.805,6.029,CST-1368DR,4409,4931,11885,01.092,551
2023-01-21T08:18:33,42.805,6.029,CST-1368DR,4409,4930,11882,01.093,551
2023-01-21T08:21:34,42.805,6.029,CST-1368DR,4409,4930,11884,01.092,551
2023-01-21T08:24:36,42.805,6.029,CST-1368DR,4409,4931,11885,01.092,551
2023-01-21T08:27:37,42.805,6.029,CST-1368DR,4409,4931,11885,01.092,551
2023-01-21T08:30:39,42.805,6.029,CST-1368DR,4409,4931,11885,01.092,551
2023-01-21T08:33:41,42.805,6.029,CST-1368DR,4409,4930,11884,01.092,551
2023-01-21T08:36:42,42.805,6.029,CST-1368DR,4409,4931,11886,01.092,551
2023-01-21T08:39:44,42.805,6.029,CST-1368DR,4409,4929,11881,01.093,551
2023-01-21T08:42:45,42.805,6.029,CST-1368DR,4409,4930,11884,01.092,551
2023-01-21T08:45:47,42.805,6.029,CST-1368DR,4409,4931,11885,01.092,551
2023-01-21T08:48:48,42.805,6.029,CST-1368DR,4409,4931,11885,01.092,551
2023-01-21T08:51:50,42.805,6.029,CST-1368DR,4409,4930,11884,01.092,551
2023-01-21T08:54:52,42.805,6.029,CST-1368DR,4409,4930,11883,01.093,551
2023-01-21T08:57:53,42.805,6.029,CST-1368DR,4409,4929,11882,01.093,551
2023-01-21T09:00:55,42.805,6.029,CST-1368DR,4409,4930,11883,01.093,551
2023-01-21T09:03:56,42.805,6.029,CST-1368DR,4409,4930,11884,01.092,551
2023-01-21T09:06:58,42.805,6.029,CST-1368DR,4409,4930,11883,01.093,551
2023-01-21T09:10:00,42.805,6.029,CST-1368DR,4409,4930,11883,01.093,551
2023-01-21T09:13:01,42.805,6.029,CST-1368DR,4409,4930,11882,01.093,551
2023-01-21T09:16:03,42.805,6.029,CST-1368DR,4409,4931,11885,01.092,551
2023-01-21T09:19:04,42.805,6.029,CST-1368DR,4409,4931,11885,01.092,551
2023-01-21T09:22:06,42.805,6.029,CST-1368DR,4409,4930,11884,01.092,551
2023-01-21T09:25:07,42.805,6.029,CST-1368DR,4409,4930,11884,01.092,551
2023-01-21T09:28:09,42.805,6.029,CST-1368DR,4409,4930,11884,01.092,551
2023-01-21T09:31:11,42.805,6.029,CST-1368DR,4409,4930,11884,01.092,551
2023-01-21T09:34:12,42.805,6.029,CST-1368DR,4409,4931,11885,01.092,551
2023-01-21T09:37:14,42.805,6.029,CST-1368DR,4409,4931,11885,01.092,551
2023-01-21T09:40:15,42.805,6.029,CST-1368DR,4409,4930,11884,01.092,551
2023-01-21T09:43:17,42.805,6.029,CST-1368DR,4409,4931,11887,01.091,551
2023-01-21T09:46:19,42.805,6.029,CST-1368DR,4409,4930,11884,01.092,551
2023-01-21T09:49:20,42.805,6.029,CST-1368DR,4409,4931,11886,01.092,551
2023-01-21T09:52:22,42.805,6.029,CST-1368DR,4409,4931,11886,01.092,551
2023-01-21T09:55:23,42.805,6.029,CST-1368DR,4409,4932,11887,01.091,551
2023-01-21T09:58:25,42.805,6.029,CST-1368DR,4409,4931,11887,01.091,551
2023-01-21T10:01:27,42.805,6.029,CST-1368DR,4409,4931,11886,01.092,551
2023-01-21T10:04:28,42.805,6.029,CST-1368DR,4409,4930,11884,01.092,551
2023-01-21T10:07:30,42.805,6.029,CST-1368DR,4409,4930,11882,01.093,551
2023-01-21T10:10:31,42.805,6.029,CST-1368DR,4409,4930,11884,01.092,551
2023-01-21T10:13:33,42.805,6.029,CST-1368DR,4409,4930,11882,01.093,551
2023-01-21T10:16:34,42.805,6.029,CST-1368DR,4409,4930,11883,01.093,551
2023-01-21T10:19:36,42.805,6.029,CST-1368DR,4409,4929,11882,01.093,551
2023-01-21T10:22:38,42.805,6.029,CST-1368DR,4409,4930,11882,01.093,551
2023-01-21T10:25:39,42.805,6.029,CST-1368DR,4409,4930,11883,01.093,551
2023-01-21T10:28:41,42.805,6.029,CST-1368DR,4409,4930,11883,01.093,551
2023-01-21T10:31:42,42.805,6.029,CST-1368DR,4409,4929,11881,01.093,551
2023-01-21T10:34:44,42.805,6.029,CST-1368DR,4409,4931,11885,01.092,551
2023-01-21T10:37:46,42.805,6.029,CST-1368DR,4409,4930,11882,01.093,551
2023-01-21T10:40:47,42.805,6.029,CST-1368DR,4409,4930,11882,01.093,551
2023-01-21T10:43:49,42.805,6.029,CST-1368DR,4409,4929,11882,01.093,551
2023-01-21T10:46:50,42.805,6.029,CST-1368DR,4409,4931,11885,01.092,551
2023-01-21T10:49:52,42.805,6.029,CST-1368DR,4409,4931,11886,01.092,551
2023-01-21T10:52:53,42.805,6.029,CST-1368DR,4409,4931,11887,01.091,551
2023-01-21T10:55:55,42.805,6.029,CST-1368DR,4409,4931,11885,01.092,551
2023-01-21T10:58:57,42.805,6.029,CST-1368DR,4409,4930,11884,01.092,551
2023-01-21T11:01:58,42.805,6.029,CST-1368DR,4409,4932,11887,01.091,551
2023-01-21T11:05:00,42.805,6.029,CST-1368DR,4409,4931,11886,01.092,551
2023-01-21T11:08:01,42.805,6.029,CST-1368DR,4409,4931,11886,01.092,551
2023-01-21T11:11:03,42.805,6.029,CST-1368DR,4409,4931,11885,01.092,551
2023-01-21T11:14:05,42.805,6.029,CST-1368DR,4409,4932,11887,01.091,551
2023-01-21T11:17:06,42.805,6.029,CST-1368DR,4409,4931,11885,01.092,551
2023-01-21T11:20:08,42.805,6.029,CST-1368DR,4409,4931,11886,01.092,551
2023-01-21T11:23:09,42.805,6.029,CST-1368DR,4409,4931,11886,01.092,551
2023-01-21T11:26:11,42.805,6.029,CST-1368DR,4409,4931,11887,01.091,551
2023-01-21T11:29:13,42.805,6.029,CST-1368DR,4409,4931,11885,01.092,551
2023-01-21T11:32:14,42.805,6.029,CST-1368DR,4409,4930,11883,01.093,551
2023-01-21T11:35:16,42.805,6.029,CST-1368DR,4409,4931,11886,01.092,551
2023-01-21T11:38:17,42.805,6.029,CST-1368DR,4409,4931,11887,01.091,551
2023-01-21T11:41:19,42.805,6.029,CST-1368DR,4409,4931,11885,01.092,551
2023-01-21T11:44:20,42.805,6.029,CST-1368DR,4409,4931,11887,01.091,551
2023-01-21T11:47:22,42.805,6.029,CST-1368DR,4409,4929,11882,01.093,551
2023-01-21T11:50:24,42.805,6.029,CST-1368DR,4409,4931,11885,01.092,551
2023-01-21T11:53:25,42.805,6.029,CST-1368DR,4409,4932,11887,01.091,551
2023-01-21T11:56:27,42.805,6.029,CST-1368DR,4409,4932,11887,01.091,551
2023-01-21T11:59:28,42.805,6.029,CST-1368DR,4409,4925,11872,01.096,551
2023-01-21T12:02:30,42.805,6.029,CST-1368DR,4409,4931,11885,01.092,551
2023-01-21T12:05:32,42.805,6.029,CST-1368DR,4409,4931,11887,01.091,551
2023-01-21T12:08:33,42.805,6.029,CST-1368DR,4409,4931,11886,01.092,551
2023-01-21T12:11:35,42.805,6.029,CST-1368DR,4409,4931,11887,01.091,551
2023-01-21T12:14:36,42.805,6.029,CST-1368DR,4409,4930,11883,01.093,551
2023-01-21T12:17:38,42.805,6.029,CST-1368DR,4409,4931,11887,01.091,551
2023-01-21T12:20:39,42.805,6.029,CST-1368DR,4409,4931,11886,01.092,551
2023-01-21T12:23:41,42.805,6.029,CST-1368DR,4409,4931,11886,01.092,551
2023-01-21T12:26:43,42.805,6.029,CST-1368DR,4409,4930,11883,01.093,551
2023-01-21T12:29:44,42.805,6.029,CST-1368DR,4409,4931,11887,01.091,551
2023-01-21T12:32:46,42.805,6.029,CST-1368DR,4409,4931,11887,01.091,551
2023-01-21T12:35:47,42.805,6.029,CST-1368DR,4409,4931,11887,01.091,551
2023-01-21T12:38:49,42.805,6.029,CST-1368DR,4409,4930,11884,01.092,551
2023-01-21T12:41:51,42.805,6.029,CST-1368DR,4409,4931,11886,01.092,551
2023-01-21T12:44:52,42.805,6.029,CST-1368DR,4409,4931,11886,01.092,551
2023-01-21T12:47:54,42.805,6.029,CST-1368DR,4409,4931,11885,01.092,551
2023-01-21T12:50:55,42.805,6.029,CST-1368DR,4409,4931,11886,01.092,551
2023-01-21T12:53:57,42.805,6.029,CST-1368DR,4409,4931,11885,01.092,551
2023-01-21T12:56:59,42.805,6.029,CST-1368DR,4409,4931,11885,01.092,551
2023-01-21T13:00:00,42.805,6.029,CST-1368DR,4409,4930,11883,01.093,551
2023-01-21T13:03:02,42.805,6.029,CST-1368DR,4409,4928,11879,01.094,551
2023-01-21T13:06:03,42.805,6.029,CST-1368DR,4409,4930,11883,01.093,551
2023-01-21T13:09:05,42.805,6.029,CST-1368DR,4409,4931,11885,01.092,551
2023-01-21T13:12:06,42.805,6.029,CST-1368DR,4409,4931,11885,01.092,551
2023-01-21T13:15:08,42.805,6.029,CST-1368DR,4409,4931,11886,01.092,551
2023-01-21T13:18:10,42.805,6.029,CST-1368DR,4409,4931,11886,01.092,551
2023-01-21T13:21:11,42.805,6.029,CST-1368DR,4409,4930,11883,01.093,551
2023-01-21T13:24:13,42.805,6.029,CST-1368DR,4409,4931,11885,01.092,551
2023-01-21T13:27:14,42.805,6.029,CST-1368DR,4409,4931,11886,01.092,551
2023-01-21T13:30:16,42.805,6.029,CST-1368DR,4409,4930,11884,01.092,551
2023-01-21T13:33:18,42.805,6.029,CST-1368DR,4409,4930,11884,01.092,551
2023-01-21T13:36:19,42.805,6.029,CST-1368DR,4409,4930,11884,01.092,551
2023-01-21T13:39:21,42.805,6.029,CST-1368DR,4409,4929,11881,01.093,551
2023-01-21T13:42:22,42.805,6.029,CST-1368DR,4409,4931,11886,01.092,551
2023-01-21T13:45:24,42.805,6.029,CST-1368DR,4409,4930,11884,01.092,551
2023-01-21T13:48:25,42.805,6.029,CST-1368DR,4409,4931,11885,01.092,551
2023-01-21T13:51:27,42.805,6.029,CST-1368DR,4409,4931,11885,01.092,551
2023-01-21T13:54:29,42.805,6.029,CST-1368DR,4409,4930,11884,01.092,551
2023-01-21T13:57:30,42.805,6.029,CST-1368DR,4409,4931,11886,01.092,551
2023-01-21T14:00:32,42.805,6.029,CST-1368DR,4409,4931,11887,01.091,551
2023-01-21T14:03:33,42.805,6.029,CST-1368DR,4409,4929,11881,01.093,551
2023-01-21T14:06:35,42.805,6.029,CST-1368DR,4409,4929,11882,01.093,551
2023-01-21T14:09:37,42.805,6.029,CST-1368DR,4409,4916,11849,01.104,551
2023-01-21T14:12:38,42.805,6.029,CST-1368DR,4409,4931,11885,01.092,551
2023-01-21T14:15:40,42.805,6.029,CST-1368DR,4409,4929,11881,01.093,551
2023-01-21T14:18:41,42.805,6.029,CST-1368DR,4409,4929,11881,01.093,551
2023-01-21T14:21:43,42.805,6.029,CST-1368DR,4409,4929,11881,01.093,551
2023-01-21T14:24:45,42.805,6.029,CST-1368DR,4409,4930,11882,01.093,551
2023-01-21T14:27:46,42.805,6.029,CST-1368DR,4409,4928,11878,01.094,551
2023-01-21T14:30:48,42.805,6.029,CST-1368DR,4409,4928,11878,01.094,551
2023-01-21T14:33:49,42.805,6.029,CST-1368DR,4409,4929,11880,01.094,551
2023-01-21T14:36:51,42.805,6.029,CST-1368DR,4409,4930,11882,01.093,551
2023-01-21T14:39:52,42.805,6.029,CST-1368DR,4409,4930,11883,01.093,551
2023-01-21T14:42:54,42.805,6.029,CST-1368DR,4409,4930,11884,01.092,551
2023-01-21T14:45:56,42.805,6.029,CST-1368DR,4409,4930,11882,01.093,551
2023-01-21T14:48:57,42.805,6.029,CST-1368DR,4409,4929,11880,01.094,551
2023-01-21T14:51:59,42.805,6.029,CST-1368DR,4409,4929,11882,01.093,551
2023-01-21T14:55:00,42.805,6.029,CST-1368DR,4409,4929,11881,01.093,551
2023-01-21T14:58:02,42.805,6.029,CST-1368DR,4409,4930,11884,01.092,551
2023-01-21T15:01:04,42.805,6.029,CST-1368DR,4409,4929,11880,01.094,551
2023-01-21T15:04:05,42.805,6.029,CST-1368DR,4409,4930,11882,01.093,551
2023-01-21T15:07:07,42.805,6.029,CST-1368DR,4409,4930,11882,01.093,551
2023-01-21T15:10:08,42.805,6.029,CST-1368DR,4409,4930,11882,01.093,551
2023-01-21T15:13:10,42.805,6.029,CST-1368DR,4409,4930,11883,01.093,551
2023-01-21T15:16:11,42.805,6.029,CST-1368DR,4409,4930,11883,01.093,551
2023-01-21T15:19:13,42.805,6.029,CST-1368DR,4409,4929,11882,01.093,551
2023-01-21T15:22:15,42.805,6.029,CST-1368DR,4409,4928,11879,01.094,551
2023-01-21T15:25:16,42.805,6.029,CST-1368DR,4409,4930,11883,01.093,551
2023-01-21T15:28:18,42.805,6.029,CST-1368DR,4409,4929,11881,01.093,551
2023-01-21T15:31:19,42.805,6.029,CST-1368DR,4409,4930,11882,01.093,551
2023-01-21T15:34:21,42.805,6.029,CST-1368DR,4409,4923,11867,01.098,551
2023-01-21T15:37:23,42.805,6.029,CST-1368DR,4409,4926,11874,01.096,551
2023-01-21T15:40:24,42.805,6.029,CST-1368DR,4409,4930,11884,01.092,551
2023-01-21T15:43:26,42.805,6.029,CST-1368DR,4409,4930,11882,01.093,551
2023-01-21T15:46:27,42.805,6.029,CST-1368DR,4409,4929,11881,01.093,551
2023-01-21T15:49:29,42.805,6.029,CST-1368DR,4409,4930,11884,01.092,551
2023-01-21T15:52:30,42.805,6.029,CST-1368DR,4409,4929,11882,01.093,551
2023-01-21T15:55:32,42.805,6.029,CST-1368DR,4409,4929,11882,01.093,551
2023-01-21T15:58:34,42.805,6.029,CST-1368DR,4409,4930,11882,01.093,551
2023-01-21T16:01:35,42.805,6.029,CST-1368DR,4409,4930,11884,01.092,551
2023-01-21T16:04:37,42.805,6.029,CST-1368DR,4409,4930,11884,01.092,551
2023-01-21T16:07:38,42.805,6.029,CST-1368DR,4409,4930,11884,01.092,551
2023-01-21T16:10:40,42.805,6.029,CST-1368DR,4409,4929,11882,01.093,551
2023-01-21T16:13:42,42.805,6.029,CST-1368DR,4409,4930,11883,01.093,551
2023-01-21T16:16:43,42.805,6.029,CST-1368DR,4409,4929,11881,01.093,551
2023-01-21T16:19:45,42.805,6.029,CST-1368DR,4409,4930,11883,01.093,551
2023-01-21T16:22:46,42.805,6.029,CST-1368DR,4409,4930,11882,01.093,551
2023-01-21T16:25:48,42.805,6.029,CST-1368DR,4409,4929,11881,01.093,551
2023-01-21T16:28:50,42.805,6.029,CST-1368DR,4409,4930,11883,01.093,551
2023-01-21T16:31:51,42.805,6.029,CST-1368DR,4409,4929,11881,01.093,551
2023-01-21T16:34:53,42.805,6.029,CST-1368DR,4409,4930,11882,01.093,551
2023-01-21T16:37:54,42.805,6.029,CST-1368DR,4409,4930,11882,01.093,551